Location: Firdgum
(53.2488°N, 5.5615°E)
Time: 14:40:49
(UTC+00:00)

CZ-4 R/B - Pass Details

Date: 08 December 2019
Orbit: 533 x 597 km, 97.7° (Epoch: 28 January)

Event Time Altitude Azimuth Distance (km) Brightness Sun altitude
Rises 06:13:28 0° 22° (NNE) 2,698 4.9 -11.7°
Reaches altitude 10° 06:15:50 10° 35° (NE) 1,804 4.1 -11.4°
Maximum altitude 06:19:11 27° 95° (E) 1,056 3.6 -11.0°
Drops below altitude 10° 06:22:33 10° 155° (SSE) 1,809 4.7 -10.5°
Sets 06:24:55 0° 167° (SSE) 2,706 5.4 -10.2°
